Liberal, Kansas, United States (67901)
Lat: 37.04N, Lon: 100.92W
Wx Zone: KSZ086
Local Info
Past Weather Observations for Tuesday, February 2, 2016

NOTE: This archive is for the closest National Weather Service station to Liberal. Information may differ from the station used for current weather conditions.

Click here for Long-term Archive

Time Weather Temperature Dewpoint Humidity Pressure Winds Precip Visibility
23:55
Clear
25°F / -4°C 16°F / -9°C 69% 30.04 in
(1017 mb)
NW 11.5 mph
(NW 19 kph)
- 10SM
23:35
Clear
25°F / -4°C 16°F / -9°C 69% 30.01 in
(1016 mb)
NW 15 mph
(NW 24 kph)
- 10SM
23:15
Clear
25°F / -4°C 16°F / -9°C 69% 30.01 in
(1016 mb)
NW 13.8 mph
(NW 22 kph)
- 10SM
22:55
Clear
25°F / -4°C 18°F / -8°C 74% 30.01 in
(1016 mb)
NW 12.7 mph
(NW 20 kph)
- 10SM
22:35
Clear
25°F / -4°C 18°F / -8°C 74% 30.01 in
(1016 mb)
NW 15 mph
(NW 24 kph)
- 10SM
22:15
Clear
25°F / -4°C 18°F / -8°C 74% 30.01 in
(1016 mb)
NW 16.1 mph
(NW 26 kph)
- 10SM
21:55
Clear
27°F / -3°C 18°F / -8°C 69% 29.98 in
(1015 mb)
NW 16.1 mph
(NW 26 kph)
- 10SM
21:35
Clear
27°F / -3°C 18°F / -8°C 69% 29.98 in
(1015 mb)
NW 13.8 mph
(NW 22 kph)
- 10SM
21:15
Clear
27°F / -3°C 18°F / -8°C 69% 29.98 in
(1015 mb)
NW 16.1 mph
(NW 26 kph)
- 10SM
20:55
Clear
27°F / -3°C 18°F / -8°C 69% 29.98 in
(1015 mb)
NW 17.3 mph
(NW 28 kph)
- 10SM
20:35
Clear
27°F / -3°C 18°F / -8°C 69% 29.95 in
(1014 mb)
NW 17.3 mph
(NW 28 kph)
- 10SM
20:15
Clear
27°F / -3°C 18°F / -8°C 69% 29.95 in
(1014 mb)
NW 19.6 mph
(NW 32 kph)
- 10SM
19:55
Clear
28°F / -2°C 18°F / -8°C 64% 29.92 in
(1013 mb)
NW 20.7 mph
(NW 33 kph)
- 10SM
19:35
Clear
28°F / -2°C 19°F / -7°C 69% 29.92 in
(1013 mb)
NW 20.7 mph
(NW 33 kph)
- 10SM
19:15
Clear
28°F / -2°C 19°F / -7°C 69% 29.89 in
(1012 mb)
NW 25.3 mph
(NW 41 kph)
- 10SM
18:55
Clear
28°F / -2°C 19°F / -7°C 69% 29.89 in
(1012 mb)
NW 24.2 mph
(NW 39 kph)
- 10SM
18:35
Partly Cloudy
28°F / -2°C 19°F / -7°C 69% 29.86 in
(1011 mb)
NW 24.2 mph
(NW 39 kph)
- 10SM
18:15
Mostly Cloudy
30°F / -1°C 19°F / -7°C 64% 29.86 in
(1011 mb)
NW 21.9 mph
(NW 35 kph)
- 10SM
17:55
Overcast
30°F / -1°C 19°F / -7°C 64% 29.83 in
(1010 mb)
NW 25.3 mph
(NW 41 kph)
- 10SM
17:35
Mostly Cloudy
32°F / 0°C 21°F / -6°C 64% 29.83 in
(1010 mb)
NNW 26.5 mph
(NNW 43 kph)
- 10SM
17:15
Overcast
32°F / 0°C 21°F / -6°C 64% 29.8 in
(1009 mb)
NW 26.5 mph
(NW 43 kph)
- 10SM
16:55
Overcast
34°F / 1°C 21°F / -6°C 60% 29.8 in
(1009 mb)
NNW 31.1 mph
(NNW 50 kph)
- 10SM
16:35
Overcast
34°F / 1°C 21°F / -6°C 60% 29.77 in
(1008 mb)
NW 28.8 mph
(NW 46 kph)
- 10SM
16:15
Overcast
32°F / 0°C 21°F / -6°C 64% 29.77 in
(1008 mb)
NNW 27.6 mph
(NNW 44 kph)
- 10SM
15:55
Overcast
32°F / 0°C 21°F / -6°C 64% 29.77 in
(1008 mb)
NNW 28.8 mph
(NNW 46 kph)
- 10SM
15:35
Overcast
34°F / 1°C 23°F / -5°C 65% 29.74 in
(1007 mb)
NNW 28.8 mph
(NNW 46 kph)
- 10SM
15:15
Overcast
34°F / 1°C 23°F / -5°C 65% 29.71 in
(1006 mb)
NNW 26.5 mph
(NNW 43 kph)
- 10SM
14:55
Overcast
34°F / 1°C 23°F / -5°C 65% 29.71 in
(1006 mb)
NNW 29.9 mph
(NNW 48 kph)
- 10SM
14:35
Overcast
34°F / 1°C 25°F / -4°C 70% 29.71 in
(1006 mb)
NNW 31.1 mph
(NNW 50 kph)
- 10SM
14:15
Overcast
34°F / 1°C 25°F / -4°C 70% 29.68 in
(1005 mb)
NNW 27.6 mph
(NNW 44 kph)
- 10SM
13:55
Overcast
34°F / 1°C 25°F / -4°C 70% 29.68 in
(1005 mb)
NNW 27.6 mph
(NNW 44 kph)
- 10SM
13:35
Overcast
34°F / 1°C 25°F / -4°C 70% 29.68 in
(1005 mb)
NNW 28.8 mph
(NNW 46 kph)
- 10SM
13:15
Overcast
34°F / 1°C 25°F / -4°C 70% 29.68 in
(1005 mb)
NW 31.1 mph
(NW 50 kph)
- 10SM
12:55
Overcast
34°F / 1°C 25°F / -4°C 70% 29.68 in
(1005 mb)
NW 29.9 mph
(NW 48 kph)
- 10SM
12:35
Overcast
34°F / 1°C 25°F / -4°C 70% 29.65 in
(1004 mb)
NW 29.9 mph
(NW 48 kph)
- 10SM
12:15
Overcast
34°F / 1°C 25°F / -4°C 70% 29.65 in
(1004 mb)
NW 27.6 mph
(NW 44 kph)
- 10SM
11:55
Overcast
34°F / 1°C 25°F / -4°C 70% 29.65 in
(1004 mb)
NW 29.9 mph
(NW 48 kph)
- 10SM
11:35
Overcast
34°F / 1°C 25°F / -4°C 70% 29.65 in
(1004 mb)
NNW 28.8 mph
(NNW 46 kph)
- 10SM
11:15
Overcast
34°F / 1°C 27°F / -3°C 75% 29.62 in
(1003 mb)
NNW 26.5 mph
(NNW 43 kph)
- 10SM
10:55
Overcast
34°F / 1°C 27°F / -3°C 75% 29.59 in
(1002 mb)
NW 32.2 mph
(NW 52 kph)
- 10SM
10:35
Overcast
34°F / 1°C 27°F / -3°C 75% 29.59 in
(1002 mb)
NNW 29.9 mph
(NNW 48 kph)
- 10SM
10:15
Overcast
32°F / 0°C 27°F / -3°C 80% 29.56 in
(1001 mb)
NW 25.3 mph
(NW 41 kph)
- 10SM
09:55
Overcast
32°F / 0°C 27°F / -3°C 80% 29.56 in
(1001 mb)
NW 27.6 mph
(NW 44 kph)
- 10SM
09:35
Overcast
32°F / 0°C 27°F / -3°C 80% 29.53 in
(1000 mb)
NW 29.9 mph
(NW 48 kph)
- 10SM
09:15
Overcast
32°F / 0°C 27°F / -3°C 80% 29.5 in
(999 mb)
NW 28.8 mph
(NW 46 kph)
- 10SM
08:55
Overcast
32°F / 0°C 27°F / -3°C 80% 29.5 in
(999 mb)
NW 27.6 mph
(NW 44 kph)
- 10SM
08:35
Overcast
32°F / 0°C 27°F / -3°C 80% 29.47 in
(998 mb)
NW 24.2 mph
(NW 39 kph)
- 10SM
08:15
Overcast
30°F / -1°C 27°F / -3°C 86% 29.47 in
(998 mb)
NW 26.5 mph
(NW 43 kph)
- 10SM
07:55
Overcast
32°F / 0°C 27°F / -3°C 80% 29.47 in
(998 mb)
NW 20.7 mph
(NW 33 kph)
- 10SM
07:35
Overcast
32°F / 0°C 27°F / -3°C 80% 29.44 in
(997 mb)
NW 24.2 mph
(NW 39 kph)
- 10SM
07:15
Overcast
32°F / 0°C 27°F / -3°C 80% 29.44 in
(997 mb)
NW 19.6 mph
(NW 32 kph)
- 10SM
06:55
Overcast
32°F / 0°C 27°F / -3°C 80% 29.42 in
(996 mb)
NW 21.9 mph
(NW 35 kph)
- 10SM
06:35
Overcast
32°F / 0°C 27°F / -3°C 80% 29.42 in
(996 mb)
NW 19.6 mph
(NW 32 kph)
- 10SM
06:15
Overcast
32°F / 0°C 28°F / -2°C 87% 29.39 in
(995 mb)
NW 21.9 mph
(NW 35 kph)
- 10SM
05:55
Overcast
34°F / 1°C 28°F / -2°C 81% 29.36 in
(994 mb)
NW 18.4 mph
(NW 30 kph)
- 7SM
05:35
Overcast
32°F / 0°C 27°F / -3°C 80% 29.36 in
(994 mb)
WNW 16.1 mph
(WNW 26 kph)
- 10SM
05:15
Mostly Cloudy
30°F / -1°C 25°F / -4°C 80% 29.33 in
(993 mb)
SSW 16.1 mph
(SSW 26 kph)
- 10SM
04:55
Partly Cloudy
28°F / -2°C 25°F / -4°C 86% 29.33 in
(993 mb)
SSW 13.8 mph
(SSW 22 kph)
- 10SM
04:35
Clear
30°F / -1°C 25°F / -4°C 80% 29.33 in
(993 mb)
SSW 11.5 mph
(SSW 19 kph)
- 10SM
04:15
Clear
30°F / -1°C 25°F / -4°C 80% 29.33 in
(993 mb)
W 11.5 mph
(W 19 kph)
- 10SM
03:55
Clear
30°F / -1°C 25°F / -4°C 80% 29.33 in
(993 mb)
W 12.7 mph
(W 20 kph)
- 10SM
03:35
Clear
30°F / -1°C 25°F / -4°C 80% 29.36 in
(994 mb)
SSW 15 mph
(SSW 24 kph)
- 10SM
03:15
Clear
30°F / -1°C 25°F / -4°C 80% 29.36 in
(994 mb)
SSW 12.7 mph
(SSW 20 kph)
- 10SM
02:55
Clear
30°F / -1°C 25°F / -4°C 80% 29.36 in
(994 mb)
SSW 11.5 mph
(SSW 19 kph)
- 10SM
02:35
Partly Cloudy
30°F / -1°C 27°F / -3°C 86% 29.36 in
(994 mb)
SW 11.5 mph
(SW 19 kph)
- 10SM
02:15
Mostly Cloudy
32°F / 0°C 27°F / -3°C 80% 29.36 in
(994 mb)
SW 9.2 mph
(SW 15 kph)
- 1 1/4SM
01:55
Overcast
34°F / 1°C 28°F / -2°C 81% 29.39 in
(995 mb)
S 8.1 mph
(S 13 kph)
- 1/4SM
01:35
Mostly Cloudy
36°F / 2°C 30°F / -1°C 81% 29.39 in
(995 mb)
S 8.1 mph
(S 13 kph)
- 10SM
01:15
Overcast
37°F / 3°C 34°F / 1°C 87% 29.39 in
(995 mb)
S 6.9 mph
(S 11 kph)
- 10SM
00:55
Overcast
37°F / 3°C 34°F / 1°C 87% 29.42 in
(996 mb)
SE 4.6 mph
(SE 7 kph)
- 1 3/4SM
00:35
Overcast
37°F / 3°C 34°F / 1°C 87% 29.42 in
(996 mb)
SE 6.9 mph
(SE 11 kph)
- 3/4SM
00:15
Overcast
37°F / 3°C 34°F / 1°C 87% 29.42 in
(996 mb)
SSE 6.9 mph
(SSE 11 kph)
- 1SM
Time Weather Temperature Dewpoint Humidity Pressure Winds Precip Visibility


Weather for websites

WeatherForYou.com, LLC is not responsible for any damages or problems caused by this service. Current weather conditions are obtained from the closest station including government and personal stations which may have varying degrees of accuracy. Weather forecasts are derived from the NOAA NDFD. Like all things, this site belongs to Jesus Christ... He just trusts us to maintain it. If you have any questions or comments email webmaster@weatherforyou.com

Copyright © 2016, WeatherForYou.com LLC. All rights reserved.